Location: Kampung Segan
(3.1399°N, 113.1002°E)
Time: 13:16:39
(UTC+00:00)

DMSP B5D2-2 - Pass Details

Date: 05 August 2024
Orbit: 787 x 802 km, 98.3° (Epoch: 07 September)

Event Time Altitude Azimuth Distance (km) Brightness Sun altitude
Exits shadow 20:25:02 20° 153° (SSE) 1,754 5.9 -29.5°
Maximum altitude 20:28:34 61° 78° (ENE) 894 4.5 -28.7°
Drops below altitude 10° 20:33:41 10° 358° (N) 2,347 6.7 -27.5°
Sets 20:36:01 0° 355° (N) 3,272 7.4 -27.0°
